Altus, OK

9:38 AM CDT on October 01, 2016 (GMT -0500)
Altus Air Force Base

Weather History for KLTS - April, 2013

Change the Weather History Date:

Saturday, April 6, 2013

  Actual Average Record
Temperature  
Mean Temperature 62 °F -  
Max Temperature 76 °F 68 °F 94 °F (2011)
Min Temperature 48 °F 44 °F 32 °F (2009)
Degree Days  
Heating Degree Days 4    
Growing Degree Days 12 (Base 50)    
Moisture  
Dew Point 49 °F    
Average Humidity 66    
Maximum Humidity 97    
Minimum Humidity 39    
Precipitation  
Precipitation 0.00 in - - ()
Sea Level Pressure  
Sea Level Pressure 29.82 in    
Wind  
Wind Speed 10 mph (ESE)    
Max Wind Speed 16 mph    
Max Gust Speed -    
Visibility 10 miles    
Events Rain    
Averages and records for this station are not official NWS values.
T = Trace of Precipitation, MM = Missing Value Source: NWS Daily Summary

Daily Weather History Graph

Daily Weather History Graph

Search for Another Location

Airport or City:

Trip Planner

Search our weather history database for the weather conditions in past years. The results will help you decide how hot, cold, wet, or windy it might be!

Date:

Astronomy

Apr. 06, 2013 Rise Set
Actual Time 7:16 AM CDT 8:02 PM CDT
Civil Twilight 6:51 AM CDT 8:27 PM CDT
Nautical Twilight 6:21 AM CDT 8:58 PM CDT
Astronomical Twilight 5:50 AM CDT 9:29 PM CDT
Moon 4:52 AM CDT (4/6) 4:40 PM CDT (4/6)
Length of Visible Light 13h 36m
Length of Day
12h 45m
Waning Crescent, 15% of the Moon is Illuminated
Apr 6
Waning Crescent
Apr 10
New
Apr 18
First Quarter
Apr 25
Full
May 2
Last Quarter

Hourly Weather History & Observations

Time (CDT) Temp. Dew Point Humidity Pressure Visibility Wind Dir Wind Speed Gust Speed Precip Events Conditions
12:58 AM 55.2 °F 47.7 °F 76% 29.87 in 10.0 mi SE 16.1 mph - N/A   Scattered Clouds
1:59 AM 53.8 °F 47.8 °F 80% 29.86 in 10.0 mi SE 10.4 mph - N/A   Clear
2:58 AM 52.7 °F 48.0 °F 84% 29.85 in 10.0 mi SE 8.1 mph - N/A   Partly Cloudy
3:58 AM 51.8 °F 47.5 °F 85% 29.83 in 10.0 mi SE 8.1 mph - N/A   Clear
4:58 AM 51.3 °F 47.5 °F 87% 29.80 in 10.0 mi SE 11.5 mph - N/A   Clear
5:58 AM 50.0 °F 47.5 °F 91% 29.80 in 10.0 mi SE 10.4 mph - N/A   Partly Cloudy
6:58 AM 48.2 °F 47.5 °F 97% 29.81 in 10.0 mi SE 11.5 mph - N/A   Partly Cloudy
7:58 AM 49.1 °F 47.8 °F 95% 29.84 in 10.0 mi SSE 4.6 mph - N/A   Clear
8:58 AM 54.3 °F 49.3 °F 83% 29.83 in 10.0 mi SSE 12.7 mph - N/A   Clear
9:58 AM 60.8 °F 49.1 °F 65% 29.84 in 10.0 mi South 15.0 mph - N/A   Clear
10:58 AM 65.7 °F 47.5 °F 52% 29.83 in 10.0 mi SSW 10.4 mph - N/A   Clear
11:58 AM 68.4 °F 47.8 °F 48% 29.83 in 10.0 mi Variable 6.9 mph - N/A   Clear
12:58 PM 71.2 °F 47.8 °F 43% 29.84 in 10.0 mi WNW 2.3 mph - N/A   Clear
1:59 PM 72.9 °F 46.6 °F 39% 29.83 in 10.0 mi Variable 5.8 mph - N/A   Partly Cloudy
2:58 PM 73.9 °F 47.5 °F 39% 29.81 in 10.0 mi Variable 4.6 mph - N/A   Partly Cloudy
3:11 PM 73.4 °F 48.2 °F 41% 29.82 in 10.0 mi NE 5.8 mph - N/A Rain Light Rain
3:19 PM 73.4 °F 48.2 °F 41% 29.82 in 10.0 mi Variable 3.5 mph - N/A   Partly Cloudy
3:58 PM 73.6 °F 48.4 °F 41% 29.80 in 10.0 mi NNE 3.5 mph - 0.00 in   Clear
4:58 PM 75.6 °F 48.9 °F 39% 29.79 in 10.0 mi East 6.9 mph - N/A   Clear
5:58 PM 74.8 °F 48.9 °F 40% 29.79 in 10.0 mi ESE 6.9 mph - N/A   Clear
6:58 PM 73.9 °F 50.7 °F 44% 29.80 in 10.0 mi East 4.6 mph - N/A   Clear
7:59 PM 66.4 °F 54.7 °F 66% 29.81 in 10.0 mi NE 6.9 mph - N/A   Clear
8:58 PM 61.0 °F 54.0 °F 78% 29.81 in 10.0 mi NNE 8.1 mph - N/A   Clear
9:58 PM 57.4 °F 52.2 °F 83% 29.83 in 10.0 mi NNE 8.1 mph - N/A   Scattered Clouds
10:58 PM 57.6 °F 52.0 °F 82% 29.84 in 10.0 mi NNE 8.1 mph - N/A   Mostly Cloudy
11:58 PM 55.0 °F 50.9 °F 86% 29.82 in 10.0 mi NNE 8.1 mph - N/A   Clear